| time (UTC) | temp F | wind direction | speed knots | gust knots | rain 1hr in | rain 24hr in | rain mn in | humidity % | barometer mb |
| 20260506215922 | 55 | 291 | 2.6 | 5.2 | 0.00 | 1.17 | 0.29 | 64 | 1015.0 |
| 20260506215023 | 55 | 302 | 4.3 | 6.1 | 0.00 | 1.18 | 0.29 | 61 | 1014.7 |
| 20260506214123 | 55 | 304 | 2.6 | 2.6 | 0.00 | 1.19 | 0.29 | 62 | 1014.6 |
| 20260506212322 | 55 | 307 | 4.3 | 5.2 | 0.00 | 1.19 | 0.29 | 59 | 1014.5 |
| 20260506211425 | 55 | 294 | 4.3 | 4.3 | 0.00 | 1.19 | 0.29 | 61 | 1014.6 |
| 20260506210523 | 55 | 313 | 2.6 | 4.3 | 0.00 | 1.19 | 0.29 | 56 | 1014.5 |
| 20260506205623 | 56 | 284 | 0.9 | 2.6 | 0.00 | 1.19 | 0.29 | 62 | 1014.5 |
| 20260506204723 | 55 | 292 | 4.3 | 4.3 | 0.00 | 1.19 | 0.29 | 58 | 1014.5 |
| 20260506203821 | 55 | 309 | 1.7 | 2.6 | 0.00 | 1.19 | 0.29 | 58 | 1014.6 |
| 20260506202924 | 55 | 294 | 1.7 | 4.3 | 0.00 | 1.19 | 0.29 | 57 | 1014.7 |
| 20260506202023 | 55 | 302 | 1.7 | 2.6 | 0.00 | 1.19 | 0.29 | 61 | 1014.6 |
| 20260506201122 | 55 | 306 | 4.3 | 4.3 | 0.00 | 1.19 | 0.29 | 61 | 1014.7 |
| 20260506200223 | 55 | 303 | 1.7 | 2.6 | 0.00 | 1.20 | 0.29 | 58 | 1014.6 |
| 20260506195402 | 55 | 315 | 2.6 | 2.6 | 0.00 | 1.22 | 0.29 | 62 | 1014.6 |
| 20260506195323 | 55 | 315 | 2.6 | 2.6 | 0.00 | 1.22 | 0.29 | 62 | 1014.6 |
| 20260506193523 | 55 | 313 | 2.6 | 5.2 | 0.00 | 1.25 | 0.29 | 61 | 1014.3 |
| 20260506192622 | 55 | 307 | 2.6 | 4.3 | 0.00 | 1.26 | 0.29 | 63 | 1014.3 |
| 20260506191723 | 54 | 297 | 0.9 | 1.7 | 0.00 | 1.27 | 0.29 | 63 | 1014.3 |
| 20260506190823 | 54 | 291 | 1.7 | 2.6 | 0.00 | 1.30 | 0.29 | 62 | 1014.4 |
| 20260506185923 | 54 | 310 | 2.6 | 2.6 | 0.00 | 1.32 | 0.29 | 62 | 1014.5 |
| 20260506184123 | 55 | 304 | 1.7 | 2.6 | 0.00 | 1.36 | 0.29 | 62 | 1014.5 |
| 20260506183224 | 54 | 282 | 0.9 | 2.6 | 0.00 | 1.37 | 0.29 | 63 | 1014.6 |
| 20260506182324 | 54 | 296 | 1.7 | 4.3 | 0.00 | 1.37 | 0.29 | 64 | 1014.6 |
| 20260506181422 | 54 | 307 | 0.9 | 0.9 | 0.00 | 1.37 | 0.29 | 60 | 1014.6 |
| 20260506180525 | 54 | 294 | 2.6 | 4.3 | 0.00 | 1.37 | 0.29 | 61 | 1014.5 |
| 20260506175622 | 54 | 297 | 0.9 | 1.7 | 0.00 | 1.37 | 0.29 | 61 | 1014.3 |
| 20260506174723 | 54 | 322 | 0.9 | 2.6 | 0.00 | 1.38 | 0.29 | 63 | 1014.3 |
| 20260506173822 | 54 | 304 | 0.9 | 0.9 | 0.00 | 1.38 | 0.29 | 64 | 1014.6 |
| 20260506173015 | 54 | 306 | 0.9 | 0.9 | 0.00 | 1.38 | 0.29 | 65 | 1014.7 |
| 20260506172922 | 54 | 306 | 0.9 | 0.9 | 0.00 | 1.38 | 0.29 | 65 | 1014.7 |
| 20260506172023 | 54 | 304 | 1.7 | 2.6 | 0.00 | 1.38 | 0.29 | 61 | 1014.8 |
| 20260506171123 | 54 | 317 | 0.9 | 0.9 | 0.00 | 1.38 | 0.29 | 62 | 1014.8 |
| 20260506170222 | 54 | 304 | 2.6 | 2.6 | 0.00 | 1.38 | 0.29 | 62 | 1014.7 |
| 20260506165322 | 54 | 299 | 0.9 | 4.3 | 0.00 | 1.38 | 0.29 | 64 | 1014.4 |
| 20260506164423 | 55 | 291 | 1.7 | 2.6 | 0.00 | 1.38 | 0.29 | 62 | 1014.3 |
| 20260506163522 | 54 | 312 | 1.7 | 2.6 | 0.00 | 1.38 | 0.29 | 66 | 1014.4 |
| 20260506162621 | 54 | 298 | 0.9 | 4.3 | 0.00 | 1.38 | 0.29 | 63 | 1014.5 |
| 20260506161723 | 53 | 305 | 0.9 | 0.9 | 0.00 | 1.38 | 0.29 | 63 | 1014.5 |
| 20260506160856 | 54 | 304 | 1.7 | 2.6 | 0.00 | 1.38 | 0.29 | 63 | 1014.4 |
| 20260506160823 | 54 | 304 | 1.7 | 2.6 | 0.00 | 1.38 | 0.29 | 63 | 1014.4 |
| 20260506155922 | 54 | 299 | 0.9 | 1.7 | 0.00 | 1.38 | 0.29 | 66 | 1014.5 |
| 20260506155022 | 54 | 310 | 1.7 | 1.7 | 0.00 | 1.38 | 0.29 | 66 | 1014.4 |
| 20260506154121 | 54 | 310 | 1.7 | 2.6 | 0.00 | 1.38 | 0.29 | 63 | 1014.6 |
| 20260506153223 | 54 | 302 | 1.7 | 2.6 | 0.00 | 1.38 | 0.29 | 64 | 1014.1 |
| 20260506152322 | 54 | 286 | 1.7 | 2.6 | 0.00 | 1.38 | 0.29 | 65 | 1014.3 |
| 20260506151422 | 53 | 300 | 4.3 | 5.2 | 0.00 | 1.38 | 0.29 | 65 | 1014.0 |
| 20260506150523 | 52 | 307 | 0.9 | 2.6 | 0.00 | 1.38 | 0.29 | 65 | 1014.1 |
| 20260506145621 | 52 | 303 | 4.3 | 5.2 | 0.00 | 1.38 | 0.29 | 69 | 1014.0 |
| 20260506144721 | 51 | 293 | 5.2 | 7.0 | 0.00 | 1.38 | 0.29 | 68 | 1013.9 |
| 20260506143821 | 51 | 315 | 1.7 | 2.6 | 0.00 | 1.38 | 0.29 | 69 | 1013.6 |
| 20260506142922 | 50 | 323 | 0.9 | 1.7 | 0.00 | 1.38 | 0.29 | 71 | 1013.5 |
| 20260506142023 | 50 | 304 | 1.7 | 5.2 | 0.00 | 1.38 | 0.29 | 72 | 1013.5 |
| 20260506141122 | 49 | 309 | 0.9 | 2.6 | 0.00 | 1.38 | 0.29 | 74 | 1013.3 |
| 20260506135321 | 48 | 306 | 1.7 | 4.3 | 0.00 | 1.38 | 0.29 | 77 | 1013.6 |
| 20260506134423 | 48 | 297 | 4.3 | 4.3 | 0.00 | 1.38 | 0.29 | 79 | 1013.6 |
| 20260506133521 | 47 | 305 | 0.9 | 2.6 | 0.00 | 1.38 | 0.29 | 81 | 1013.4 |
| 20260506132622 | 47 | 297 | 1.7 | 2.6 | 0.00 | 1.38 | 0.29 | 82 | 1013.4 |
| 20260506131723 | 46 | 304 | 0.0 | 1.7 | 0.00 | 1.38 | 0.29 | 86 | 1013.4 |
| 20260506130821 | 45 | 290 | 2.6 | 4.3 | 0.00 | 1.38 | 0.29 | 86 | 1013.5 |
| 20260506125921 | 45 | 312 | 0.0 | 0.9 | 0.00 | 1.38 | 0.29 | 89 | 1013.2 |
| 20260506125023 | 44 | 301 | 0.9 | 1.7 | 0.00 | 1.38 | 0.29 | 90 | 1013.1 |
| 20260506124122 | 44 | 299 | 0.9 | 1.7 | 0.00 | 1.38 | 0.29 | 91 | 1013.0 |
| 20260506123225 | 44 | 294 | 0.0 | 0.9 | 0.00 | 1.38 | 0.29 | 91 | 1012.9 |
| 20260506122322 | 43 | 293 | 1.7 | 1.7 | 0.00 | 1.38 | 0.29 | 92 | 1012.7 |
| 20260506121422 | 43 | 305 | 1.7 | 1.7 | 0.00 | 1.38 | 0.29 | 92 | 1012.8 |
| 20260506120521 | 43 | 296 | 0.0 | 0.9 | 0.00 | 1.38 | 0.29 | 93 | 1012.5 |
| 20260506115622 | 43 | 296 | 0.0 | 0.0 | 0.00 | 1.38 | 0.29 | 93 | 1012.2 |
| 20260506114730 | 43 | 300 | 0.0 | 0.9 | 0.00 | 1.38 | 0.29 | 93 | 1011.9 |
| 20260506113821 | 43 | 300 | 0.0 | 0.0 | 0.00 | 1.38 | 0.29 | 93 | 1011.6 |
| 20260506112922 | 42 | 289 | 0.0 | 0.9 | 0.00 | 1.38 | 0.29 | 93 | 1011.6 |
| 20260506112024 | 42 | 289 | 0.0 | 0.0 | 0.00 | 1.38 | 0.29 | 93 | 1011.3 |
| 20260506111121 | 42 | 289 | 0.0 | 0.0 | 0.00 | 1.38 | 0.29 | 93 | 1011.1 |
| 20260506110222 | 42 | 289 | 0.0 | 0.0 | 0.00 | 1.38 | 0.29 | 93 | 1010.9 |
| 20260506105322 | 42 | 289 | 0.0 | 0.0 | 0.00 | 1.38 | 0.29 | 93 | 1010.7 |
| 20260506104422 | 42 | 289 | 0.0 | 0.0 | 0.00 | 1.38 | 0.29 | 93 | 1010.8 |
| 20260506103522 | 42 | 289 | 0.0 | 0.0 | 0.00 | 1.38 | 0.29 | 93 | 1011.1 |
| 20260506102622 | 42 | 289 | 0.0 | 0.0 | 0.00 | 1.38 | 0.29 | 93 | 1010.8 |
| 20260506101723 | 42 | 289 | 0.0 | 0.0 | 0.00 | 1.38 | 0.29 | 92 | 1010.5 |
| 20260506100821 | 42 | 289 | 0.0 | 0.0 | 0.00 | 1.38 | 0.29 | 92 | 1010.4 |
| 20260506095922 | 42 | 289 | 0.0 | 0.0 | 0.00 | 1.39 | 0.29 | 92 | 1010.1 |
| 20260506095023 | 42 | 289 | 0.0 | 0.0 | 0.00 | 1.39 | 0.29 | 92 | 1010.2 |
| 20260506094122 | 42 | 289 | 0.0 | 0.0 | 0.00 | 1.39 | 0.29 | 92 | 1010.0 |
| 20260506093223 | 42 | 289 | 0.0 | 0.0 | 0.00 | 1.39 | 0.29 | 92 | 1010.0 |
| 20260506092321 | 42 | 289 | 0.0 | 0.0 | 0.00 | 1.39 | 0.29 | 93 | 1010.1 |
| 20260506091422 | 42 | 289 | 0.0 | 0.0 | 0.00 | 1.39 | 0.29 | 93 | 1010.2 |
| 20260506090522 | 41 | 285 | 0.0 | 0.9 | 0.00 | 1.40 | 0.29 | 92 | 1010.3 |
| 20260506085623 | 42 | 242 | 0.0 | 0.0 | 0.01 | 1.40 | 0.29 | 92 | 1009.8 |
| 20260506084723 | 42 | 242 | 0.0 | 0.0 | 0.01 | 1.41 | 0.29 | 92 | 1009.7 |
| 20260506083822 | 42 | 241 | 0.0 | 0.0 | 0.01 | 1.43 | 0.29 | 92 | 1009.3 |
| 20260506082921 | 42 | 241 | 0.0 | 0.0 | 0.02 | 1.48 | 0.29 | 92 | 1009.8 |
| 20260506082022 | 41 | 241 | 0.0 | 0.0 | 0.02 | 1.52 | 0.29 | 92 | 1009.8 |
| 20260506081122 | 41 | 242 | 0.0 | 0.9 | 0.03 | 1.55 | 0.29 | 92 | 1009.3 |
| 20260506080221 | 41 | 249 | 0.0 | 0.9 | 0.03 | 1.59 | 0.29 | 92 | 1008.9 |
| 20260506073522 | 42 | 257 | 0.0 | 0.0 | 0.02 | 1.66 | 0.28 | 92 | 1009.9 |
| 20260506072622 | 42 | 256 | 0.0 | 0.9 | 0.01 | 1.68 | 0.27 | 92 | 1009.9 |
| 20260506071723 | 42 | 207 | 0.0 | 0.9 | 0.01 | 1.70 | 0.27 | 92 | 1009.6 |
| 20260506070835 | 43 | 306 | 0.0 | 0.0 | 0.01 | 1.71 | 0.26 | 92 | 1009.6 |
| 20260506062322 | 43 | 204 | 0.0 | 0.0 | 0.07 | 1.76 | 0.26 | 92 | 1009.5 |
| 20260506061421 | 43 | 286 | 0.0 | 0.9 | 0.08 | 1.76 | 0.26 | 92 | 1009.7 |
| 20260506060521 | 43 | 248 | 0.0 | 0.9 | 0.08 | 1.75 | 0.25 | 92 | 1009.7 |
| 20260506051122 | 45 | 339 | 0.0 | 0.9 | 0.14 | 1.68 | 0.18 | 92 | 1008.6 |
| 20260506050221 | 45 | 241 | 0.0 | 1.7 | 0.17 | 1.67 | 0.17 | 92 | 1008.5 |
| 20260506044422 | 45 | 286 | 0.9 | 2.6 | 0.00 | 1.64 | 0.14 | 92 | 1008.8 |
| 20260506043522 | 45 | 317 | 0.9 | 2.6 | 0.00 | 1.61 | 0.11 | 92 | 1009.7 |
| 20260506042621 | 46 | 305 | 0.0 | 0.0 | 0.00 | 1.58 | 0.08 | 92 | 1009.4 |
| 20260506041722 | 45 | 307 | 0.0 | 0.0 | 0.00 | 1.56 | 0.06 | 92 | 1009.2 |
| 20260506040822 | 45 | 310 | 0.0 | 0.9 | 0.00 | 1.53 | 0.03 | 92 | 1009.1 |
| 20260506035922 | 46 | 304 | 0.9 | 1.7 | 0.00 | 1.50 | 0.00 | 92 | 1008.9 |
| 20260506034122 | 46 | 97 | 1.7 | 2.6 | 0.21 | 1.50 | 1.50 | 92 | 1008.0 |
| 20260506033222 | 46 | 132 | 0.9 | 1.7 | 0.21 | 1.49 | 1.49 | 92 | 1008.3 |
| 20260506032321 | 46 | 144 | 0.9 | 1.7 | 0.17 | 1.45 | 1.45 | 92 | 1008.8 |
| 20260506031422 | 46 | 304 | 0.9 | 0.9 | 0.11 | 1.39 | 1.39 | 92 | 1009.2 |
| 20260506030521 | 47 | 290 | 0.9 | 1.7 | 0.04 | 1.31 | 1.31 | 92 | 1009.2 |
| 20260506025621 | 47 | 260 | 0.9 | 5.2 | 0.02 | 1.29 | 1.29 | 92 | 1008.3 |
| 20260506024723 | 47 | 241 | 0.0 | 0.9 | 0.03 | 1.29 | 1.29 | 92 | 1008.2 |
| 20260506023821 | 47 | 120 | 0.9 | 2.6 | 0.03 | 1.28 | 1.28 | 92 | 1008.1 |
| 20260506022924 | 47 | 278 | 0.9 | 0.9 | 0.04 | 1.28 | 1.28 | 92 | 1008.2 |
| 20260506022023 | 47 | 163 | 0.0 | 0.9 | 0.07 | 1.28 | 1.28 | 92 | 1008.4 |
| 20260506021122 | 47 | 269 | 0.9 | 1.7 | 0.09 | 1.28 | 1.28 | 92 | 1008.5 |
| 20260506020221 | 47 | 146 | 0.9 | 1.7 | 0.10 | 1.27 | 1.27 | 92 | 1008.7 |
| 20260506015322 | 47 | 240 | 0.0 | 0.9 | 0.09 | 1.26 | 1.26 | 92 | 1008.8 |
| 20260506014421 | 47 | 105 | 0.0 | 0.9 | 0.11 | 1.26 | 1.26 | 92 | 1008.8 |
| 20260506013522 | 47 | 146 | 0.0 | 1.7 | 0.13 | 1.25 | 1.25 | 92 | 1008.5 |
| 20260506012621 | 48 | 290 | 0.0 | 0.9 | 0.14 | 1.23 | 1.23 | 92 | 1008.8 |
| 20260506011721 | 47 | 253 | 0.0 | 0.0 | 0.14 | 1.20 | 1.20 | 92 | 1008.5 |
| 20260506010821 | 48 | 234 | 0.0 | 1.7 | 0.18 | 1.18 | 1.18 | 92 | 1008.4 |
| 20260506005921 | 47 | 178 | 0.0 | 0.9 | 0.21 | 1.17 | 1.17 | 92 | 1008.1 |
| 20260506005022 | 48 | 231 | 0.0 | 0.0 | 0.25 | 1.17 | 1.17 | 91 | 1008.0 |
| 20260506004125 | 48 | 130 | 0.0 | 0.9 | 0.26 | 1.14 | 1.14 | 91 | 1008.3 |
| 20260506003221 | 48 | 311 | 0.0 | 0.9 | 0.27 | 1.12 | 1.12 | 91 | 1008.6 |
| 20260506002322 | 48 | 299 | 0.9 | 0.9 | 0.26 | 1.09 | 1.09 | 91 | 1008.6 |
| 20260506001422 | 49 | 317 | 0.9 | 1.7 | 0.23 | 1.04 | 1.04 | 91 | 1008.4 |
| 20260506000522 | 49 | 306 | 0.0 | 1.7 | 0.21 | 0.99 | 0.99 | 91 | 1008.4 |
| 20260505233822 | 49 | 312 | 0.9 | 2.6 | 0.15 | 0.88 | 0.88 | 91 | 1007.7 |
| 20260505232921 | 49 | 304 | 0.9 | 2.6 | 0.13 | 0.84 | 0.84 | 91 | 1007.8 |
| 20260505230223 | 51 | 307 | 1.7 | 2.6 | 0.15 | 0.78 | 0.78 | 90 | 1007.4 |
| 20260505225322 | 51 | 310 | 1.7 | 2.6 | 0.15 | 0.77 | 0.77 | 90 | 1007.4 |
| 20260505224422 | 52 | 313 | 1.7 | 4.3 | 0.13 | 0.74 | 0.74 | 89 | 1007.6 |
| 20260505222621 | 58 | 306 | 6.1 | 7.8 | 0.09 | 0.69 | 0.69 | 88 | 1007.3 |
| 20260505220821 | 58 | 188 | 0.0 | 2.6 | 0.05 | 0.65 | 0.65 | 90 | 1007.2 |